Вернуться в каталог

THORAD AGENA D DEB

АктивенLEO
NORAD 18616·DEBRIS·🇺🇸 United States

Запущен Sep 30, 1969 с Vandenberg Space Force Base

Loading…

Ближайшие Пролёты (ближайшие 24 часа)

TLE

СвежийSource: Space-Track

Эпоха: Sep 14, 2026, 08:26 UTC

1 18616U 69082LB  26257.35159874  .00000172  00000-0  16873-3 0  9999
2 18616  70.1410  27.0232 0159027 144.7487 216.4260 13.88004361956906

Отслеживайте THORAD AGENA D DEB в реальном времени с AllMySat

Download on the App Store